User: anonymous
Location: Sawmill Trailhead
(33.5800°N, 116.4497°W)
Time: 05:18:19
(UTC-07:00)
Language:

Uosat F - Orbit

View from above orbital plane
View from above orbital plane
View from above satellite
View from above satellite

Ground track
Ground track

The orbit data is extracted from the following two-line orbital elements,

1 21575U 91050B   14111.16921448  .00000473  00000-0  16336-3 0  9927
2 21575 098.6935 086.4698 0008435 128.7338 294.2064 14.40356123195275
Epoch (UTC): 21 April 2014 04:03:40
Eccentricity: 0.0008435
inclination: 98.6935°
perigee height: 751 km
apogee height: 763 km
right ascension of ascending node: 86.4698°
argument of perigee: 128.7338°
revolutions per day: 14.40356123
mean anomaly at epoch: 294.2064°
orbit number at epoch: 19527

The dashed part of the orbit path shows where the satellite is in the earth's shadow,  

DLR